Regional Weather Roundup
Issued by NWS Upton, NY

Current Version | Previous Version | Text Only | Print | Product List | Glossary Off
Versions: 1 2 3 4 5 6 7 8 9 10 11 12 13 14 15 16 17 18 19 20 21 22 23 24 25 26 27 28 29 30 31 32 33 34 35 36 37 38 39 40 41 42 43 44 45 46 47 48 49 50
000 ASUS41 KOKX 031518 RWROKX REGIONAL WEATHER ROUNDUP NATIONAL WEATHER SERVICE NEW YORK NY 1100 AM EDT WED JUN 03 2015 NOTE: "FAIR" INDICATES FEW OR NO CLOUDS BELOW 12,000 FEET WITH NO SIGNIFICANT WEATHER AND/OR OBSTRUCTIONS TO VISIBILITY. NYZ071-072-176-178-NJZ106-104-031600- NEW YORK CITY METRO AREA CITY SKY/WX TMP DP RH WIND PRES REMARKS CENTRAL PARK MOSUNNY 62 50 64 E5 30.26S LAGUARDIA APRT PTSUNNY 61 49 64 E9 30.24S KENNEDY INTL PTSUNNY 65 49 56 NE9 30.24S NEWARK/LIBERTY PTSUNNY 64 52 64 NE9 30.24S BRNX BOT. GARD N/A 61 50 67 NW2 30.23F TETERBORO MOSUNNY 62 50 64 VRB3 30.23S $$ NYZ177-179-078>081-031600- LONG ISLAND NEW YORK CITY SKY/WX TMP DP RH WIND PRES REMARKS FARMINGDALE PTSUNNY 63 49 60 NE8 30.24S ISLIP PTSUNNY 62 50 64 N6 30.22S SHIRLEY MOSUNNY 61 50 67 N5 30.24S WESTHAMPTON MOSUNNY 61 50 67 N8 30.25S MONTAUK POINT N/A 57 48 72 VRB5 30.26R $$ NYZ052-065-067-031600- HUDSON VALLEY CITY SKY/WX TMP DP RH WIND PRES REMARKS WHITE PLAINS MOSUNNY 60 51 72 VRB3 30.23S NEWBURGH MOSUNNY 63 46 55 VRB6 30.25S MONTGOMERY MOSUNNY 63 48 58 VRB3 30.24S POUGHKEEPSIE MOSUNNY 62 44 51 MISG 30.23F ALBANY MOSUNNY 59 44 57 N9 30.27S $$ NJZ001-105-106-008-010-013-015-019>022-104-031600- NEW JERSEY CITY SKY/WX TMP DP RH WIND PRES REMARKS NEWARK/LIBERTY PTSUNNY 64 52 64 NE9 30.24S TETERBORO MOSUNNY 62 50 64 VRB3 30.23S CALDWELL MOSUNNY 63 50 62 E13 30.24S MORRISTOWN PTSUNNY 70 57 64 CALM 30.24F SOMERVILLE PTSUNNY 64 51 62 CALM 30.22S SUSSEX PTSUNNY 61 50 67 VRB7 30.25F ANDOVER N/A 61 52 72 VRB3 30.24F TRENTON CLOUDY 60 52 74 E8 30.23S MILLVILLE NOT AVBL ATLANTIC CITY CLOUDY 60 52 74 NE14 30.20S WRIGHTSTOWN CLOUDY 59 51 75 NE13 30.20S TOMS RIVER CLOUDY N/A N/A N/A NE14 30.22S BELMAR NOT AVBL $$ PAZ047>061-062-071-031600- EASTERN PENNSYLVANIA CITY SKY/WX TMP DP RH WIND PRES REMARKS PHILADELPHIA CLOUDY 61 50 67 NE12 30.23S ALLENTOWN CLOUDY 59 51 75 NE9 30.24S SCRANTON PTSUNNY 62 51 67 N7 30.23F $$ CTZ002-004>006-009-010-012-RIZ004-006-007-MAZ004-011-015-031600- SOUTHERN NEW ENGLAND IN CT CITY SKY/WX TMP DP RH WIND PRES REMARKS BRADLEY INTL PTSUNNY 60 43 53 N6 30.23S HARTFORD MOSUNNY 60 45 57 VRB7 30.24S DANBURY PTSUNNY 59 47 64 N6 30.24F WTRBRY/OXFORD PTSUNNY 59 46 63 NE3 30.24S BRIDGEPORT MOSUNNY N/A N/A N/A MISG 30.24S MERIDEN MOSUNNY 63 45 51 VRB5 30.23F NEW HAVEN PTSUNNY 61 48 62 N8 30.23S CHESTER FAIR 61 46 59 N5 30.23F GROTON MOSUNNY 54 49 83 S10 30.23R WILLIMANTIC MOSUNNY 60 43 53 CALM 30.23S IN RI CITY SKY/WX TMP DP RH WIND PRES REMARKS PROVIDENCE PTSUNNY 59 46 62 VRB6 30.24R BLOCK ISLAND PTSUNNY 54 46 76 E5 30.25S WESTERLY MOSUNNY 55 48 77 S8 30.24S IN MA CITY SKY/WX TMP DP RH WIND PRES REMARKS BOSTON CLOUDY 52 47 83 E13 30.25R WORCESTER MOSUNNY 57 43 59 E8 30.23R WESTFIELD MOSUNNY 61 42 49 NE8 30.22F PROVINCETOWN CLOUDY 54 46 76 N8 30.26R NANTUCKET CLOUDY 55 46 71 NE16 30.24R $$ ANZ330-335-338-340-345-350-353-355-031600- COASTAL MARINE OBSERVATIONS STATION/POSITION TIME SKY/WX TEMP WIND PRES VSBY WAVE AIR SEA DIR/SP/G HT/PER (UTC) (F) (DEG/KT/KT) (MB) (MI) (FT/S) NY HARB ENTRANCE 1450 55 56 50/ 8/ 10 1023.8 3/ 7 4S FIRE IS 1403 54 N/A 3/ 8 20S FIRE ISLAND 1450 53 55 50/ 14/ 16 1023.4 4/ 6 GREAT SOUTH BAY 1330 55 63 60/ 8/ 12 N/A 23SW MTP 1450 52 56 70/ 10/ 12 1023.9 3/ 8 HUDSON CANYON NOT AVBL KINGS POINT 1400 58 56 60/ 4/ 8 1023.2 CENTRAL LI SOUND 1415 52 56 180/ 2/ 2 N/A EASTERN LI SOUND 1400 52 170/ 6/ 8 N/A ROBBINS REEF 1400 57 40/ 5/ 6 1022.8 $$ >>>>>>>>>>>>>>>>>>>>>>>>>>>> KEY <<<<<<<<<<<<<<<<<<<<<<<<<<< > < > SKY/WX - SKY CONDITION/PRESENT WEATHER < > TMP - TEMPERATURE IN FAHRENHEIT < > DP - DEWPOINT IN FAHRENHEIT < > RH - RELATIVE HUMIDITY IN PERCENT < > WIND - DIRECTION AND SPEED IN MPH < > PRES - MEAN SEA LEVEL PRESSURE IN INCHES OF HG < > WCI - WIND CHILL INDEX < > VSB - VISIBILITY IN MILES < > HX - HEAT INDEX < > TC - TEMPERATURE IN CELSIUS < > VRB - VARIABLE WIND DIRECTION < > < >>>>>>>>>>>>>>>>>>>>>>>>>>>> KEY <<<<<<<<<<<<<<<<<<<<<<<<<<<

USA.gov is the U.S. government's official web portal to all federal, state and local government web resources and services.